Regional Weather Roundup
Issued by NWS Sterling, VA

Home | Current Version | Previous Version | Graphics & Text | Print | Product List | Glossary On
Versions: 1 2 3 4 5 6 7 8 9 10 11 12 13 14 15 16 17 18 19 20 21 22 23 24 25 26 27 28 29 30 31 32 33 34 35 36 37 38 39 40 41 42 43 44 45 46 47 48 49 50
000
ASUS41 KLWX 140910
RWRLWX

REGIONAL WEATHER ROUNDUP
NATIONAL WEATHER SERVICE BALTIMORE MD/WASHINGTON DC
500 AM EDT SUN SEP 14 2014

Note: "FAIR" indicates few or no clouds below 12,000 feet
with no significant weather and/or obstructions to visibility.
 TC=TEMPERATURE CELSIUS

 * =Non NWS site. Station does not report precipitation (e.g. rain,
    snow, etc.), thunder, or fog.

DCZ001-MDZ009-015-VAZ040>042-051-053>054-141000-
WASHINGTON METRO

CITY           SKY/WX    TMP DP  RH WIND       PRES   REMARKS
WASHINGTON NAT CLEAR     58  49  72 NW8       30.27R
DULLES         CLEAR     51  46  83 NW5       30.27R
ANDREWS AFB    CLEAR     52  48  86 N7        30.25R
QUANTICO       CLEAR     56  48  74 N12       30.27R
COLLEGE PARK*  CLEAR     52  52 100 CALM      30.25S
LEESBURG*      CLEAR     54  50  87 N10       30.28S
MANASSAS*      CLEAR     52  50  93 CALM      30.27R
GAITHERSBURG*  CLEAR     48  46  93 CALM      30.30R

$$

MDZ006>007-011-014-141000-
BALTIMORE METRO

CITY           SKY/WX    TMP DP  RH WIND       PRES   REMARKS
BWI AIRPORT    CLEAR     52  48  86 NW3       30.25R
MD SCIENCE CTR   N/A     58  47  66 MISG      30.26R
MARTIN STATE   CLEAR     54  50  87 NW5       30.26S
ANNAPOLIS      CLEAR     60  52  74 N8        30.24S
FORT MEADE*    CLEAR     50  48  93 CALM      30.28R

$$

MDZ012-015-019>023-141000-
MARYLAND EASTERN SHORE

CITY           SKY/WX    TMP DP  RH WIND       PRES   REMARKS
OCEAN CITY     CLEAR     59  55  87 NW6       30.20R
SALISBURY      CLEAR     60  55  83 N7        30.21R
BAY BRIDGE AP*   N/A     61  46  59 N9        30.25R
CAMBRIDGE*     CLEAR     59  52  77 N6        30.23R
EASTON*        CLEAR     57  56  95 CALM      30.28R

$$

MDZ017>025-141000-
SOUTHERN MARYLAND

CITY           SKY/WX    TMP DP  RH WIND       PRES   REMARKS
PATUXENT RIVER CLEAR     60  54  80 N9        30.23R
ST INIGOES     CLEAR     61  52  72 NW5       30.22R
LEONARDTOWN*   CLEAR     57  50  77 NW3       30.25S

$$

MDZ003>005-141000-
NORTH CENTRAL MARYLAND

CITY           SKY/WX    TMP DP  RH WIND       PRES   REMARKS
FREDERICK*     CLEAR     50  48  93 CALM      30.30R
HAGERSTOWN APT CLEAR     49  44  83 CALM      30.28R
WESTMINSTER*   CLEAR     48  45  87 CALM      30.27R

$$

MDZ501>502-141000-
WESTERN MARYLAND

CITY           SKY/WX    TMP DP  RH WIND       PRES   REMARKS
OAKLAND*       CLEAR     41 N/A N/A CALM      30.29F
CUMBERLAND*    CLEAR     45  43  93 CALM      30.35R

$$

VAZ025>031-141000-
SHENANDOAH VALLEY

CITY           SKY/WX    TMP DP  RH WIND       PRES   REMARKS
WINCHESTER*    CLEAR     50  45  81 NW3       30.29R
STAUNTON*      PTCLDY    52  47  84 N7        30.30R

$$

WVZ021-048>050-054>055-141000-
EASTERN WEST VIRGINIA PANHANDLE

CITY           SKY/WX    TMP DP  RH WIND       PRES   REMARKS
MARTINSBURG    CLEAR     47  42  83 CALM      30.29R
PETERSBURG*    CLEAR     45  43  93 CALM      30.32S

$$

VAZ036>039-050-141000-
CENTRAL FOOTHILLS

CITY           SKY/WX    TMP DP  RH WIND       PRES   REMARKS
CHARLOTTESVILL CLEAR     52  49  89 N3        30.26R
ORANGE*        CLEAR     54  46  76 NW6       30.28S

$$

VAZ055>057-141000-
NORTH AND CENTRAL PIEDMONT

CITY           SKY/WX    TMP DP  RH WIND       PRES   REMARKS
FREDERICKSBRG* CLEAR     56  53  89 CALM      30.26R
STAFFORD*      CLEAR     51  51 100 CALM      30.30R

$$

NCZ024-NYZ072-PAZ021-071-VAZ022-071-141000-
OTHER REGIONAL OBSERVATIONS

CITY           SKY/WX    TMP DP  RH WIND       PRES   REMARKS
NEW YORK CITY  CLEAR     55  46  71 NW6       30.24R
PHILADELPHIA   CLEAR     55  50  83 N5        30.25R
PITTSBURGH     CLEAR     43  41  93 CALM      30.30F
ROANOKE        CLOUDY    60  50  69 NE3       30.27R
RICHMOND       PTCLDY    59  52  77 N8        30.23S
RALEIGH        PTCLDY    62  54  74 NE7       30.22S

$$

ANZ530>537-141000-
MARINE OBSERVATIONS

STATION/POSITION TIME  TEMP    WIND        PRES
                       AIR SEA DIR/SP/G
                 (UTC) (F)     (DEG/KT/KT) (MB)
THOMAS PT LIGHT  0900   61 75  360/ 16/ 19 1024.8R
BALT KEY BRIDGE  0900   59     340/ 10/ 13 1024.2R
COVE POINT       0900   65      20/ 17/ 21 1023.4R
LEWISETTA        0900   64 72   10/ 10/ 15 1023.1R
SOLOMONS ISLAND  0900      76                N/A
PINEY POINT      0900           10/ 11/ 13   N/A

$$




USA.gov is the U.S. government's official web portal to all federal, state and local government web resources and services.